Regional Weather Roundup
Issued by NWS Bismarck, ND

Home | Current Version | Previous Version | Text Only | Print | Product List | Glossary On
Versions: 1 2 3 4 5 6 7 8 9 10 11 12 13 14 15 16 17 18 19 20 21 22 23 24 25 26 27 28 29 30 31 32 33 34 35 36 37 38 39 40 41 42 43 44 45 46 47 48 49 50
000
ASUS43 KBIS 292210
RWRBIS

NWR BROADCAST TEXT
NATIONAL WEATHER SERVICE BISMARCK ND
500 PM CDT FRI APR 29 2016

NOTE: "FAIR" INDICATES FEW OR NO CLOUDS BELOW 12,000 FEET WITH NO
SIGNIFICANT WEATHER AND/OR OBSTRUCTIONS TO VISIBILITY.


CITY           SKY/WX    TMP DP  RH WIND       PRES   REMARKS
WILLISTON      PTSUNNY   60  27  28 SE10G22   30.11S
MINOT          SUNNY     65  21  18 E13G24    30.13S
MINOT AFB      SUNNY     61  25  25 E10G22    30.12F
BISMARCK       MOSUNNY   60  33  36 SE15G26   30.11S
DICKINSON      CLOUDY    55  27  34 E14G21    30.08S
GARRISON         N/A     61  26  26 E16       30.11F
HETTINGER ARPT CLOUDY    54  28  36 E13       30.09F
JAMESTOWN      MOSUNNY   61  31  32 E9        30.12R
BEACH          MOCLDY    54  30  40 SE13G20   30.11S
CARRINGTON     FAIR      61  30  31 E10G17    30.15S
HAZEN          FAIR      59  27  29 E15       30.12F
LINTON         FAIR      63  34  34 E10G17    30.11F
MANDAN         FAIR      59  32  36 E14G20    30.11F
OAKES            N/A    N/A N/A N/A MISG        N/A
RUGBY          FAIR      61  25  25 E15G23    30.15R
STANLEY        FAIR      59  21  23 SE17G24   30.14S
WATFORD CITY   FAIR      59  25  27 E13G21    30.11S
$$

CITY           SKY/WX    TMP DP  RH WIND       PRES   REMARKS
GRAND FORKS    MOSUNNY   64  32  30 NE14      30.14R
GRAND FORKS AF SUNNY     62  30  29 E13G21    30.14R
DEVILS LAKE    SUNNY     60  27  28 E15       30.16R
FARGO          SUNNY     65  31  28 NE10      30.09S
CANDO          FAIR      61  23  23 E13G21    30.18S
CAVALIER       FAIR      61  32  33 NE9G20    30.16F
GRAFTON        FAIR      63  32  31 E13G20    30.16F
GWINNER        FAIR      61  36  39 E8        30.11S
LANGDON        FAIR      59  32  36 NE13      30.17S
ROLLA          FAIR      59  21  23 E14G20    30.17F
WALHALLA       FAIR      61  28  29 NE12G18   30.17S
$$

CITY           SKY/WX    TMP DP  RH WIND       PRES   REMARKS
ABERDEEN       CLOUDY    58  37  45 SE6       30.10F
MOBRIDGE       PTSUNNY   60  38  43 SE9       30.05F
BUFFALO          N/A     49  33  54 SE13      30.01F
RAPID CITY     CLOUDY    44  35  70 NE7       30.05F
GLASGOW        MOSUNNY   56  29  35 SE16      30.04F
SIDNEY         CLOUDY    57  32  38 SE16      30.11R
WOLF POINT     PTSUNNY   59  32  36 SE13G18   30.08F
GLENDIVE       CLOUDY    54  36  50 SE8       30.10F
MILES CITY     CLOUDY    53  37  54 SE12      30.04S
BAKER          CLOUDY    50  33  52 S16       30.08F
$$

CITY           SKY/WX    TMP DP  RH WIND       PRES   REMARKS
BILLINGS       CLOUDY    50  32  50 E15G22    29.97S
GREAT FALLS    CLOUDY    51  29  42 CALM      29.92F
REGINA         MOSUNNY   63  12  14 SE15G22   30.12F
ESTEVAN        PTSUNNY   63  16  16 E10G25    30.12F
$$





USA.gov is the U.S. government's official web portal to all federal, state and local government web resources and services.